Location: Cosy Dell
(34.2789°N, 117.4537°W)
Time: 21:23:00
(UTC+00:00)

CZ-4C R/B - Pass Details

Date: 29 October 2020
Orbit: 623 x 1378 km, 63.4° (Epoch: 03 December)

Event Time Altitude Azimuth Distance (km) Brightness Sun altitude
Rises 02:56:41 0° 343° (NNW) 3,830 5.8 -24.7°
Reaches altitude 10° 03:00:42 10° 6° (N) 3,032 5.0 -25.5°
Enters shadow 03:02:56 14° 24° (NNE) 2,817 4.7 -26.0°
